Weather History for Mt. Pocono, PA

Change the Weather History Date:

Tuesday, October 30, 2012

  Actual Average Record
Temperature  
Mean Temperature 42 °F 44 °F  
Max Temperature 47 °F 53 °F 75 °F (1946)
Min Temperature 36 °F 36 °F 16 °F (1905)
Degree Days  
Heating Degree Days 23 21  
Month to date heating degree days 417 500  
Since 1 July heating degree days 635 768  
Cooling Degree Days 0 0  
Month to date cooling degree days 0 0  
Year to date cooling degree days 453 313  
Moisture  
Dew Point 39 °F    
Average Humidity 91    
Maximum Humidity 100    
Minimum Humidity 82    
Precipitation  
Precipitation 1.35 in 0.08 in 4.00 in (1935)
Month to date precipitation 8.11 3.89  
Year to date precipitation 41.82 40.23  
Sea Level Pressure  
Sea Level Pressure 29.27 in    
Wind  
Wind Speed 16 mph (SE)    
Max Wind Speed 36 mph    
Max Gust Speed 55 mph    
Visibility 7 miles    
Events Rain    
T = Trace of Precipitation, MM = Missing Value Source: NWS Daily Summary

Daily Weather History Graph

Daily Weather History Graph

Search for Another Location

Airport:

Trip Planner

Search our weather history database for the weather conditions in past years. The results will help you decide how hot, cold, wet, or windy it might be!

Date:

Astronomy

Oct. 30, 2012 Rise Set
Actual Time 7:30 AM EDT 5:58 PM EDT
Civil Twilight 7:02 AM EDT 6:27 PM EDT
Nautical Twilight 6:29 AM EDT 6:59 PM EDT
Astronomical Twilight 5:57 AM EDT 7:31 PM EDT
Moon 6:26 PM EDT (10/30) 8:15 AM EDT (10/30)
Length of Visible Light 11h 25m
Length of Day
10h 28m
Full, 99% of the Moon is Illuminated
Oct 30
Full
Nov 6
Last Quarter
Nov 13
New
Nov 20
First Quarter
Nov 28
Full

Hourly Weather History & Observations

Time (EDT) Temp. Windchill Dew Point Humidity Pressure Visibility Wind Dir Wind Speed Gust Speed Precip Events Conditions
12:16 AM 48.2 °F - 44.6 °F 87% 28.79 in 9.0 mi East 27.6 mph 49.5 mph 0.01 in   Unknown
12:46 AM 48.2 °F - 44.6 °F 87% 28.82 in 6.0 mi East 24.2 mph 42.6 mph 0.06 in Rain Light Rain
12:53 AM 48.0 °F - 45.0 °F 89% 28.84 in 8.0 mi ESE 21.9 mph 43.7 mph 0.06 in Rain Light Rain
5:53 AM 44.1 °F 36.5 °F 42.1 °F 93% 29.09 in 8.0 mi SE 17.3 mph 34.5 mph 0.11 in Rain Rain
6:34 AM 42.8 °F 34.5 °F 42.8 °F 100% 29.12 in 6.0 mi SE 18.4 mph 25.3 mph 0.09 in Rain Rain
7:13 AM 42.8 °F 34.5 °F 42.8 °F 100% 29.14 in 7.0 mi SE 18.4 mph 27.6 mph 0.03 in Rain Rain
7:53 AM 43.0 °F 35.1 °F 41.0 °F 93% 29.17 in 10.0 mi SE 17.3 mph 27.6 mph 0.09 in Rain Light Rain
8:53 AM 43.0 °F 35.4 °F 41.0 °F 93% 29.20 in 8.0 mi SE 16.1 mph 27.6 mph 0.04 in Rain Light Rain
9:21 AM 42.8 °F 34.0 °F 41.0 °F 93% 29.21 in 6.0 mi SE 20.7 mph 28.8 mph 0.05 in Rain Rain
9:40 AM 42.8 °F 34.8 °F 39.2 °F 87% 29.22 in 4.0 mi SSE 17.3 mph 33.4 mph 0.13 in Rain Rain
9:53 AM 42.1 °F 33.9 °F 39.9 °F 92% 29.23 in 7.0 mi SSE 17.3 mph 28.8 mph 0.15 in Rain Light Rain
10:03 AM 42.8 °F 33.3 °F 39.2 °F 87% 29.23 in 5.0 mi SE 24.2 mph 34.5 mph 0.02 in Rain Rain
11:33 AM 42.8 °F 34.8 °F 39.2 °F 87% 29.26 in 4.0 mi SSE 17.3 mph 29.9 mph 0.06 in Rain Rain
11:53 AM 42.1 °F 34.9 °F 39.9 °F 92% 29.29 in 4.0 mi SSE 13.8 mph 27.6 mph 0.08 in Rain Light Rain
12:47 PM 42.8 °F 33.5 °F 39.2 °F 87% 29.28 in 5.0 mi SSE 23.0 mph 40.3 mph 0.04 in Rain Light Rain
12:53 PM 42.1 °F 32.6 °F 39.0 °F 89% 29.30 in 5.0 mi SSE 23.0 mph 39.1 mph 0.04 in Rain Light Rain
1:53 PM 42.1 °F 34.5 °F 39.0 °F 89% 29.31 in 10.0 mi SSE 15.0 mph 29.9 mph 0.00 in   Overcast
2:00 PM 42.8 °F 34.5 °F 39.2 °F 87% 29.29 in 10.0 mi SE 18.4 mph 29.9 mph N/A   Overcast
2:08 PM 42.8 °F 33.8 °F 37.4 °F 81% 29.29 in 10.0 mi SSE 21.9 mph 32.2 mph N/A   Overcast
2:53 PM 42.1 °F 33.6 °F 37.0 °F 82% 29.33 in 10.0 mi SE 18.4 mph 31.1 mph N/A   Overcast
3:16 PM 42.8 °F 35.1 °F 39.2 °F 87% 29.31 in 10.0 mi SSE 16.1 mph 21.9 mph N/A   Overcast
3:27 PM 42.8 °F 35.8 °F 37.4 °F 81% 29.32 in 10.0 mi SSE 13.8 mph 26.5 mph N/A   Overcast
3:41 PM 41.0 °F 33.5 °F 37.4 °F 87% 29.32 in 10.0 mi SE 13.8 mph 20.7 mph 0.00 in Rain Light Rain
3:53 PM 41.0 °F 33.1 °F 37.9 °F 89% 29.35 in 10.0 mi SE 15.0 mph 23.0 mph 0.00 in Rain Light Rain
4:53 PM 41.0 °F 34.3 °F 37.9 °F 89% 29.37 in 10.0 mi SSE 11.5 mph - 0.01 in Rain Light Rain
5:00 PM 39.2 °F 32.0 °F 37.4 °F 93% 29.34 in 5.0 mi SSE 11.5 mph 20.7 mph 0.01 in Rain Light Rain
5:33 PM 39.2 °F 31.2 °F 37.4 °F 93% 29.36 in 6.0 mi SSE 13.8 mph - 0.03 in Rain Light Rain
5:45 PM 39.2 °F 31.2 °F 37.4 °F 93% 29.36 in 7.0 mi SSE 13.8 mph 20.7 mph 0.03 in Rain Light Rain
5:53 PM 39.0 °F 29.9 °F 37.0 °F 93% 29.39 in 5.0 mi SSE 17.3 mph 21.9 mph 0.04 in Rain Light Rain
6:53 PM 37.9 °F 30.9 °F 37.0 °F 97% 29.42 in 6.0 mi SSE 10.4 mph 23.0 mph 0.03 in Rain Light Rain
7:00 PM 37.4 °F 28.2 °F 37.4 °F 100% 29.39 in 5.0 mi SSE 16.1 mph 21.9 mph 0.01 in Rain Light Rain
7:12 PM 37.4 °F 29.8 °F 35.6 °F 93% 29.40 in 6.0 mi SSE 11.5 mph 23.0 mph 0.02 in Rain Light Rain
8:53 PM 37.9 °F 30.9 °F 36.0 °F 93% 29.44 in 9.0 mi South 10.4 mph - 0.03 in Rain Light Rain
9:53 PM 37.0 °F 30.4 °F 35.1 °F 93% 29.45 in 10.0 mi SSE 9.2 mph - 0.01 in Rain Light Rain
10:08 PM 37.4 °F 30.8 °F 35.6 °F 93% 29.41 in 4.0 mi SSE 9.2 mph - 0.01 in Rain Light Rain
10:53 PM 37.0 °F 29.3 °F 36.0 °F 96% 29.45 in 6.0 mi SSE 11.5 mph - 0.02 in Rain Light Rain
11:53 PM 36.0 °F 29.0 °F 35.1 °F 97% 29.45 in 7.0 mi South 9.2 mph - 0.00 in Rain Light Rain